Weather History for Oceana NAS, VA

Change the Weather History Date:

Saturday, October 20, 2012

  Actual Average Record
Temperature  
Mean Temperature 62 °F -  
Max Temperature 73 °F 66 °F 80 °F (2006)
Min Temperature 52 °F 48 °F 41 °F (1996)
Degree Days  
Heating Degree Days 2    
Growing Degree Days 12 (Base 50)    
Moisture  
Dew Point 48 °F    
Average Humidity 65    
Maximum Humidity 83    
Minimum Humidity 38    
Precipitation  
Precipitation 0.00 in - - ()
Sea Level Pressure  
Sea Level Pressure 29.80 in    
Wind  
Wind Speed 5 mph (WSW)    
Max Wind Speed 8 mph    
Max Gust Speed -    
Visibility 10 miles    
Events      
Averages and records for this station are not official NWS values.
T = Trace of Precipitation, MM = Missing Value Source: NWS Daily Summary

Daily Weather History Graph

Daily Weather History Graph

Search for Another Location

Airport:

Trip Planner

Search our weather history database for the weather conditions in past years. The results will help you decide how hot, cold, wet, or windy it might be!

Date:

Astronomy

Oct. 20, 2012 Rise Set
Actual Time 7:16 AM EDT 6:20 PM EDT
Civil Twilight 6:50 AM EDT 6:46 PM EDT
Nautical Twilight 6:20 AM EDT 7:16 PM EDT
Astronomical Twilight 5:50 AM EDT 7:46 PM EDT
Moon 12:46 PM EDT (10/20) 11:07 PM EDT (10/20)
Length of Visible Light 11h 56m
Length of Day
11h 03m
Waxing Crescent, 34% of the Moon is Illuminated
Oct 20
Waxing Crescent
Oct 21
First Quarter
Oct 29
Full
Nov 6
Last Quarter
Nov 13
New

Hourly Weather History & Observations

Time (EDT) Temp. Dew Point Humidity Pressure Visibility Wind Dir Wind Speed Gust Speed Precip Events Conditions
12:56 AM 63.0 °F 55.0 °F 75% 29.76 in 10.0 mi SW 6.9 mph - N/A   Clear
1:56 AM 61.0 °F 54.0 °F 78% 29.76 in 10.0 mi SSW 5.8 mph - N/A   Clear
2:56 AM 61.0 °F 53.1 °F 75% 29.77 in 10.0 mi SSW 5.8 mph - N/A   Clear
3:56 AM 59.0 °F 50.0 °F 72% 29.76 in 10.0 mi SSW 4.6 mph - N/A   Clear
4:56 AM 57.9 °F 48.0 °F 70% 29.75 in 10.0 mi SSW 3.5 mph - N/A   Clear
5:56 AM 53.1 °F 48.0 °F 83% 29.77 in 10.0 mi SW 3.5 mph - N/A   Clear
6:56 AM 52.0 °F 46.9 °F 83% 29.78 in 10.0 mi SW 6.9 mph - N/A   Scattered Clouds
7:56 AM 54.0 °F 46.9 °F 77% 29.80 in 10.0 mi SW 5.8 mph - N/A   Scattered Clouds
8:56 AM 57.9 °F 48.0 °F 70% 29.80 in 10.0 mi SW 5.8 mph - N/A   Scattered Clouds
9:56 AM 63.0 °F 46.9 °F 56% 29.80 in 10.0 mi SW 5.8 mph - N/A   Partly Cloudy
10:56 AM 66.9 °F 46.0 °F 47% 29.81 in 10.0 mi West 5.8 mph - N/A   Clear
11:56 AM 70.0 °F 44.1 °F 39% 29.81 in 10.0 mi NW 5.8 mph - N/A   Clear
12:56 PM 71.1 °F 44.1 °F 38% 29.79 in 10.0 mi NNW 6.9 mph - N/A   Clear
1:56 PM 73.0 °F 46.9 °F 39% 29.77 in 10.0 mi NNW 5.8 mph - N/A   Clear
2:56 PM 70.0 °F 46.9 °F 44% 29.77 in 10.0 mi East 8.1 mph - N/A   Partly Cloudy
3:56 PM 69.1 °F 48.9 °F 49% 29.77 in 10.0 mi East 6.9 mph - N/A   Clear
4:56 PM 68.0 °F 48.0 °F 49% 29.78 in 10.0 mi ENE 4.6 mph - N/A   Clear
5:56 PM 64.9 °F 48.0 °F 54% 29.80 in 10.0 mi NE 4.6 mph - N/A   Clear
6:56 PM 60.1 °F 50.0 °F 69% 29.82 in 10.0 mi Calm Calm - N/A   Clear
7:56 PM 57.9 °F 50.0 °F 75% 29.84 in 10.0 mi Calm Calm - N/A   Partly Cloudy
8:56 PM 55.9 °F 50.0 °F 80% 29.87 in 10.0 mi SW 3.5 mph - N/A   Partly Cloudy
9:56 PM 55.0 °F 50.0 °F 83% 29.88 in 10.0 mi WSW 3.5 mph - N/A   Scattered Clouds
10:56 PM 55.9 °F 48.0 °F 75% 29.90 in 10.0 mi West 6.9 mph - N/A   Partly Cloudy
11:56 PM 55.0 °F 46.0 °F 72% 29.90 in 10.0 mi WNW 4.6 mph - N/A   Partly Cloudy